Content
SEND FEEDBACK

Daily
Averages
Monthly
Summary
Italy

MONTESCUDO, ITALY


Home > Europe > Italy
Elevation: 1535 feet     Latitude: 43 54N     Longitude: 012 30E

WEATHER
 
SELECT A DAY
Number of Records: 397,927;   Date Range: 7/1/96 - 12/19/14
 
SHARE

PRINT THIS DATA

[ ← Previous Day ]
WEATHER ALMANAC - FEBRUARY 13, 2013
[ Next Day → ]
[ °C ]   °F
Weather ElementAverageHighLow
Temperature37.9 °F41 °F (12:15 pm)33.8 °F (3:45 am)
Dewpoint36.7 °F40 °F (7:00 pm)33.8 °F (3:45 am)
Humidity95.3 %100 % (12:45 am)81 % (12:15 pm)
Barometer29.83 in29.95 in (11:15 pm)29.77 in (12:45 am)
Wind Speed10.2 mph15 mph (9:15 am)
Weather ElementAverage
Visibility1.9 mi
Wind DirectionWNW (293.1 °)

Weather ElementTotal
Precipitation---
Heating Degree Days27.6 (Base 65)
Averaged from 55 records on February 13, 2013
WEATHER CONDITIONS BREAKOUT
WIND DIRECTION BREAKOUT
WEATHER BY HOUR - FEBRUARY 13, 2013
[ °C ]   °F
Local TimeTemperatureDewpointHumidityBarometerVisibilityWind DirectionWind SpeedGust SpeedPrecipitationEventsConditions
12:45 AM37.4 °F37.4 °F100 %29.77 in1.4 miWNW (290°)4.6 mphOvercast
1:00 AM36.0 °F36.0 °F100 %29.79 in1.0 miWNW (290°)4.6 mphMist
1:15 AM35.6 °F35.6 °F100 %29.77 in1.4 miWNW (290°)4.6 mphOvercast
1:45 AM35.6 °F35.6 °F100 %29.77 in1.4 miWNW (290°)4.6 mphOvercast
2:15 AM35.6 °F35.6 °F100 %29.77 in1.4 miWNW (290°)4.6 mphOvercast
2:45 AM35.6 °F35.6 °F100 %29.77 in1.4 miWNW (300°)4.6 mphOvercast
3:15 AM35.6 °F35.6 °F100 %29.77 in1.4 miWNW (290°)4.6 mphOvercast
3:45 AM33.8 °F33.8 °F100 %29.77 in1.6 miWNW (290°)8.1 mphOvercast
4:00 AM35.0 °F35.0 °F97 %29.79 in2.0 miWNW (290°)8.1 mphMist
4:15 AM33.8 °F33.8 °F100 %29.77 in1.4 miWNW (300°)8.1 mphOvercast
4:45 AM33.8 °F33.8 °F100 %29.77 in1.6 miWNW (300°)8.1 mphOvercast
5:15 AM33.8 °F33.8 °F100 %29.77 in1.6 miWNW (300°)11.5 mphOvercast
5:45 AM35.6 °F35.6 °F100 %29.77 in1.6 miWNW (300°)10.4 mphOvercast
6:15 AM35.6 °F35.6 °F100 %29.77 in1.6 miWNW (300°)8.1 mphOvercast
6:45 AM35.6 °F35.6 °F100 %29.80 in1.6 miWNW (300°)8.1 mphOvercast
7:00 AM36.0 °F36.0 °F98 %29.81 in2.0 miWNW (300°)8.1 mphMist
7:15 AM35.6 °F35.6 °F100 %29.80 in1.6 miWNW (300°)6.9 mphOvercast
7:45 AM37.4 °F37.4 °F100 %29.80 in1.4 miWNW (290°)9.2 mphScattered Clouds
8:15 AM37.4 °F35.6 °F93 %29.83 in1.7 miWNW (290°)10.4 mphScattered Clouds
8:45 AM37.4 °F35.6 °F93 %29.83 in1.9 miWNW (290°)12.7 mphScattered Clouds
9:15 AM37.4 °F35.6 °F93 %29.83 in2.5 miWNW (290°)15.0 mphMostly Cloudy
9:45 AM39.2 °F35.6 °F87 %29.83 in2.5 miWNW (290°)13.8 mphMostly Cloudy
10:00 AM38.0 °F36.0 °F88 %29.83 in2.0 miWNW (290°)13.8 mphMist
10:15 AM39.2 °F35.6 °F87 %29.83 in2.5 miWNW (290°)15.0 mphMostly Cloudy
10:45 AM39.2 °F35.6 °F87 %29.83 in2.8 miWNW (290°)13.8 mphMostly Cloudy
11:15 AM39.2 °F35.6 °F87 %29.83 in2.8 miWNW (300°)15.0 mphMostly Cloudy
11:45 AM39.2 °F35.6 °F87 %29.83 in2.8 miWNW (300°)13.8 mphMostly Cloudy
12:15 PM41.0 °F35.6 °F81 %29.83 in2.8 miWNW (300°)13.8 mphMostly Cloudy
12:45 PM41.0 °F35.6 °F81 %29.83 in2.8 miWNW (300°)13.8 mphMostly Cloudy
1:00 PM40.0 °F36.0 °F82 %29.83 in3.0 miWNW (300°)13.8 mphMist
1:15 PM41.0 °F37.4 °F87 %29.83 in2.5 miWNW (300°)12.7 mphMostly Cloudy
1:45 PM41.0 °F37.4 °F87 %29.83 in2.5 miWNW (300°)12.7 mphOvercast
2:15 PM41.0 °F37.4 °F87 %29.83 in2.5 miWNW (300°)13.8 mphOvercast
2:45 PM41.0 °F37.4 °F87 %29.83 in2.5 miWNW (300°)13.8 mphOvercast
3:15 PM41.0 °F37.4 °F87 %29.83 in2.2 miWNW (300°)12.7 mphOvercast
3:45 PM41.0 °F37.4 °F87 %29.83 in2.2 miWNW (290°)12.7 mphOvercast
4:00 PM40.0 °F38.0 °F88 %29.83 in2.0 miWNW (290°)12.7 mphMist
4:15 PM39.2 °F37.4 °F93 %29.83 in1.9 miWNW (290°)12.7 mphRainLight Rain
4:45 PM39.2 °F39.2 °F100 %29.83 in1.9 miWNW (290°)11.5 mphRainLight Rain
5:15 PM39.2 °F39.2 °F100 %29.83 in1.9 miWNW (300°)10.4 mphRainLight Rain
5:45 PM39.2 °F39.2 °F100 %29.83 in1.9 miWNW (290°)11.5 mphRainLight Rain
6:15 PM39.2 °F39.2 °F100 %29.86 in1.9 miWNW (300°)9.2 mphRainLight Rain
6:45 PM39.2 °F39.2 °F100 %29.86 in1.9 miWNW (290°)10.4 mphRainLight Rain
7:00 PM40.0 °F40.0 °F99 %29.88 in2.0 miWNW (290°)10.4 mphRainLight Rain
7:15 PM39.2 °F39.2 °F100 %29.89 in1.9 miWNW (300°)11.5 mphRainLight Rain
7:45 PM39.2 °F39.2 °F100 %29.89 in1.9 miWest (280°)8.1 mphRainLight Rain
8:15 PM39.2 °F39.2 °F100 %29.89 in1.6 miWest (280°)9.2 mphRainLight Rain
8:45 PM39.2 °F39.2 °F100 %29.89 in1.6 miWNW (290°)11.5 mphRainLight Rain
9:15 PM39.2 °F39.2 °F100 %29.92 in1.6 miWNW (290°)9.2 mphRainLight Rain
9:45 PM37.4 °F37.4 °F100 %29.92 in1.6 miWNW (290°)9.2 mphRainLight Rain
10:00 PM37.0 °F37.0 °F100 %29.93 in2.0 miWNW (290°)9.2 mphRainLight Rain
10:15 PM37.4 °F37.4 °F100 %29.92 in1.6 miWNW (290°)10.4 mphRainLight Rain
10:45 PM37.4 °F37.4 °F100 %29.92 in1.6 miWNW (290°)9.2 mphRainLight Rain
11:15 PM37.4 °F37.4 °F100 %29.95 in1.2 miWest (270°)9.2 mphRainLight Rain
11:45 PM37.4 °F37.4 °F100 %29.95 in1.2 miWest (280°)8.1 mphRainLight Rain
Hourly data recorded from LIPR, located miles away from Montescudo, Italy







STORIES FROM OUR PARTNERS